Tracking 27112 objects as of 26-Mar-2023
HD Live streaming from Space Station
objects crossing your sky now

STARLINK-3883

Track STARLINK-3883 now!
10-day predictions
STARLINK-3883 is classified as:


NORAD ID: 52493
Int'l Code: 2022-049AU
Perigee: 546.3 km
Apogee: 547.7 km
Inclination: 53.2 °
Period: 95.4 minutes
Semi major axis: 6917 km
RCS: Unknown
Launch date: May 6, 2022
Source: United States (US)
Launch site: AIR FORCE EASTERN TEST RANGE (AFETR)
Your satellite tracking list
Your tracking list is empty




NASA's NSSDC Master Catalog

Two Line Element Set (TLE):
1 52493U 22049AU  23085.05210800  .00006094  00000-0  40104-3 0  9995
2 52493  53.2158 215.8037 0001050 189.2618 170.8355 15.08805006 49562
Source of the keplerian elements: AFSPC